Hovedside
METAR-TAF:

METAR-TAF

Lufthavner :

Torsby, Sverige

breddegrad: 60-09-17N, lengdegrad: 12-59-40E, høyde over havet: 120 m

Gjeldene værobservasjon

Denne rapporten ble laget for 32 minutter siden, klokken 21:20 UTC
Vind 5 kt fra Sørøst
Temperatur 16°C
Luftfuktighet 94%
Trykk 1007 hPa
Sikt 10 km eller mer

METAR: ESST 182120Z AUTO 14005KT 9999 FEW047/// OVC084/// 16/15 Q1007

Tid: 23:52 (21:52 UTC)


TAF: fraværende

Værobservasjoner og værvarsel for over 4000 flyplasser (METAR- og TAF-rapporter).

Tilgjengelige stasjoner er representert av de røde og gule prikkene på kartet.

Hold musepekeren over prikken for å se navnet på stasjonen.

Klikk så for å se værobservasjoner og -varsler.

For å forandre kartet kan du klikke på den grønne knappen med svart kryss for å zoome inn, på den grønne knappen med strek for å zoome ut, eller på de grønne pilene for å se tilstøtende kart.


METAR-TAF: